Location: St. Louis
(38.6270°N, 90.1994°W)
Time: 09:15:52
(UTC-05:00)

Altair - Pass Details

Date: 03 July 2022
Orbit: 1502 x 1682 km, 47.2° (Epoch: 16 August)

Event Time Altitude Azimuth Distance (km) Brightness Sun altitude
Exits shadow 03:53:15 - 170° (S) 4,473 9.6 -16.9°
Reaches altitude 10° 03:57:48 10° 148° (SSE) 3,644 9.3 -16.3°
Maximum altitude 04:01:36 13° 123° (ESE) 3,393 9.4 -15.8°
Drops below altitude 10° 04:05:23 10° 97° (E) 3,654 10.0 -15.3°
Sets 04:10:37 0° 73° (ENE) 4,657 11.1 -14.6°
